Location: Unspecified
(50.1700°N, 6.8600°E)
Time: 11:31:21
(UTC+00:00)

Cosmos 1441 Rocket - Pass Details

Date: 24 January 2019
Orbit: 496 x 542 km, 81.1° (Epoch: 22 February)

Event Time Altitude Azimuth Distance (km) Brightness Sun altitude
Rises 04:49:49 0° 186° (S) 2,688 6.8 -23.4°
Reaches altitude 10° 04:51:59 10° 185° (S) 1,798 5.9 -23.0°
Maximum altitude 04:55:56 75° 100° (E) 562 3.4 -22.4°
Drops below altitude 10° 04:59:52 10° 15° (NNE) 1,793 6.0 -21.8°
Sets 05:02:01 0° 14° (NNE) 2,680 7.0 -21.4°
